Regional Weather Roundup
Issued by NWS

Home | Current Version | Previous Version | Graphics & Text | Print | Product List | Glossary On
Versions: 1 2 3 4 5 6 7 8 9 10 11 12 13 14 15 16 17 18 19 20 21 22 23 24 25 26 27 28 29 30 31 32 33 34 35 36 37 38 39 40 41 42 43 44 45 46 47 48 49 50
700
ASUS44 KJAN 311103
RWRMS

MISSISSIPPI HOURLY WEATHER ROUNDUP
NATIONAL WEATHER SERVICE JACKSON MS
600 AM CDT THU JUL 31 2014

NOTE: "FAIR: INDICATES FEW OR NO CLOUDS BELOW 12,000 FEET WITH NO
SIGNIFICANT WEATHER AND/OR OBSTRUCTIONS TO VISIBILITY.

MSZ001>002-007>008-010>013-018>021-025>028-034>036-311200-
NORTHWEST MISSISSIPPI

CITY           SKY/WX    TMP DP  RH WIND       PRES   REMARKS
CLEVELAND      DRIZZLE   69  69 100 N5        30.07R
GREENWOOD      CLOUDY    70  66  87 CALM      30.07R
GREENVILLE     LGT RAIN  71  68  90 N6        30.07R
GRENADA        CLOUDY    68  64  88 NW3       30.07R
OXFORD         FAIR      66  64  94 CALM      30.09R
TUNICA         CLOUDY    68  64  88 W5        30.10R
$$

MSZ003>006-009-014>017-022>024-029>033-037>039-311200-
NORTHEAST MISSISSIPPI

CITY           SKY/WX    TMP DP  RH WIND       PRES   REMARKS
BELMONT        PTSUNNY   66  64  92 CALM      30.08R
COLUMBUS AFB   CLOUDY    68  64  85 N2        30.05R
CORINTH        CLOUDY    66  64  94 CALM      30.08R
GOLDN TRIANGLE CLOUDY    68  61  77 CALM      30.06R
STARKVILLE     CLOUDY    68  63  83 CALM      30.05S
TUPELO         CLOUDY    69  64  84 N6        30.06R
$$

MSZ040-058-311200-
CENTRAL MISSISSIPPI

CITY           SKY/WX    TMP DP  RH WIND       PRES   REMARKS
JACKSON INTL   CLOUDY    72  61  68 N5        30.05R
JACKSON HAWKNS MOCLDY    74  58  57 CALM      30.06R
MERIDIAN KEY   MOCLDY    66  61  84 CALM      30.04R
MERIDIAN NAS   MOCLDY    66  62  87 CALM      30.05R
RAYMOND        FAIR      68  63  83 NW3       30.05R
VICKSBURG      CLOUDY    71  65  81 N5        30.06R
$$

MSZ059>079-311200-
SOUTH MISSISSIPPI

CITY           SKY/WX    TMP DP  RH WIND       PRES   REMARKS
BROOKHAVEN     FAIR      68  63  83 CALM      30.05S
COLUMBIA       FAIR      66  64  94 CALM      30.02R
HATTIESBURG    PTCLDY    65  63  93 CALM      30.04R
MCCOMB         MOCLDY    71  60  68 NE3       30.04R
NATCHEZ        CLOUDY    70  63  78 CALM      30.05R
PINE BELT      PTCLDY    63  59  88 CALM      30.04R
$$

MSZ080>082-311200-
COASTAL MISSISSIPPI

CITY           SKY/WX    TMP DP  RH WIND       PRES   REMARKS
BILOXI         CLOUDY    70  61  73 NE6       30.02R
PASCAGOULA     CLEAR     63  61  93 CALM      30.01R
GULFPORT       PTCLDY    73  61  65 CALM      30.01R
$$



USA.gov is the U.S. government's official web portal to all federal, state and local government web resources and services.